User: anonymous   Login
Location: Unspecified
(0.0000°N, 0.0000°E)
Time: 04:49:28
(UTC+01:00)
Language:

Ariane H10 - Orbit

View from above orbital plane
View from above orbital plane
View from above satellite
View from above satellite

Ground track
Ground track

The orbit data is extracted from the following two-line orbital elements,

1 21727U 91067B   16343.39872606 -.00000088  00000-0  11086-3 0  9996
2 21727   4.4143  47.3837 7185502 358.3562   0.3118  2.31881759173513
Epoch (UTC): 08 December 2016 09:34:09
Eccentricity: 0.7185502
inclination: 4.4143°
perigee height: 408 km
apogee height: 35058 km
right ascension of ascending node: 47.3837°
argument of perigee: 358.3562°
revolutions per day: 2.31881759
mean anomaly at epoch: 0.3118°
orbit number at epoch: 17351

The dashed part of the orbit path shows where the satellite is in the earth's shadow,  

DLR